Weather reports worldwide

Advertisment
Charlwood, United Kingdom (3769): temperature & dewpoint: 21.05.2018 09:00:00 - 27.05.2018 09:00:00 (BST)Charlwood, United Kingdom (3769): temperature -20cm & temperature -100cm: 21.05.2018 09:00:00 - 27.05.2018 09:00:00 (BST)Charlwood, United Kingdom (3769): wind speed & gusts: 21.05.2018 09:00:00 - 27.05.2018 09:00:00 (BST)Charlwood, United Kingdom (3769): wind direction: 21.05.2018 09:00:00 - 27.05.2018 09:00:00 (BST)Charlwood, United Kingdom (3769): reduced air pressure: 21.05.2018 09:00:00 - 27.05.2018 09:00:00 (BST)Charlwood, United Kingdom (3769): visibility: 21.05.2018 09:00:00 - 27.05.2018 09:00:00 (BST)Charlwood, United Kingdom (3769): sunshine duration: 21.05.2018 09:00:00 - 27.05.2018 09:00:00 (BST)Charlwood, United Kingdom (3769): precipitation: 21.05.2018 09:00:00 - 27.05.2018 09:00:00 (BST)
Date & Time tt [°C] td [°C] tt -20cm [°C] tt -100cm [°C] ff [km/h] ff [kn] fx [km/h] fx [kn] dd ppp [hPa] vv [km] sd [min] rr [mm]
27.05.2018 09:00:00 - - - - - - - - - - - - -
27.05.2018 08:00:00 17,3 15,1 - - 5 3 - - NNE 1015,1 7 36 0,0
27.05.2018 07:00:00 16,0 15,1 - - 2 1 - - N 1015,2 5 0 0,0
27.05.2018 06:00:00 15,0 14,4 - - 4 2 - - N 1014,9 4,7 0 0,0
27.05.2018 05:00:00 14,7 13,8 - - 8 4 - - N 1014,9 4,0 0 0,0
27.05.2018 04:00:00 14,9 14,0 - - 8 4 - - NNE 1015,3 5 0 0,0
27.05.2018 03:00:00 15,2 14,3 - - 9 5 - - NNE 1015,5 6 0 0,0
27.05.2018 02:00:00 16,0 14,7 - - 4 2 - - NE 1015,7 7 0 0,2
27.05.2018 01:00:00 16,5 14,8 - - 15 8 - - NNE 1016,1 7 - 0,0
27.05.2018 00:00:00 16,6 14,3 - - 4 2 - - S 1018,0 6 0 0,0
26.05.2018 23:00:00 18,2 14,6 - - 15 8 - - ENE 1017,1 9 0 0,0
26.05.2018 22:00:00 18,5 15,0 - - 13 7 - - NE 1017,5 9 0 0,0
26.05.2018 21:00:00 19,3 15,3 - - 15 8 - - NE 1016,9 8 0 0,0
26.05.2018 20:00:00 20,7 15,6 - - 16 9 - - NE 1016,6 10 18 0,0
26.05.2018 19:00:00 21,6 15,6 - - 18 10 - - NE 1016,5 11 54 0,0
26.05.2018 18:00:00 22,6 15,7 - - 24 13 - - ENE 1016,4 16 48 0,0
26.05.2018 17:00:00 23,2 16,3 - - 21 11 - - ENE 1016,4 30 42 0,0
26.05.2018 16:00:00 23,2 16,5 - - 26 14 - - ENE 1016,7 14 60 0,0
26.05.2018 15:00:00 24,0 16,7 - - 24 13 46 25 ENE 1017,1 21 48 0,0
26.05.2018 14:00:00 24,0 17,3 - - 24 13 - - ENE 1017,5 19 42 0,0
26.05.2018 13:00:00 23,6 16,7 - - 22 12 - - ENE 1017,8 21 60 0,0
26.05.2018 12:00:00 22,5 17,3 - - 15 8 - - ENE 1018,2 9 48 0,0
26.05.2018 11:00:00 20,5 16,2 - - 16 9 - - NE 1018,2 6 48 0,0
26.05.2018 10:00:00 17,7 15,1 16,7 12,7 9 5 - - NE 1018,5 4,0 18 0,0
26.05.2018 09:00:00 16,7 14,8 - - 15 8 - - NE 1018,5 3,7 0 0,0
26.05.2018 08:00:00 15,2 14,0 - - 9 5 - - NNE 1018,9 2,7 0 0,0
26.05.2018 07:00:00 14,3 13,5 - - 9 5 - - NNE 1019,1 2,0 0 0,0
26.05.2018 06:00:00 14,1 13,4 - - 9 5 - - NNE 1018,7 1,6 0 0,0
26.05.2018 05:00:00 14,1 13,4 - - 11 6 - - NNE 1018,5 1,5 0 0,0
26.05.2018 04:00:00 13,8 13,2 - - 4 2 - - ENE 1019,0 1,3 0 0,0
26.05.2018 03:00:00 13,7 13,1 - - 5 3 - - N 1019,1 1,9 0 0,0
26.05.2018 02:00:00 13,7 13,3 - - 8 4 - - NNE 1019,2 2,4 0 0,0
26.05.2018 01:00:00 13,7 13,3 - - 5 3 - - N 1019,3 1,5 - 0,0
26.05.2018 00:00:00 13,5 12,9 - - 2 1 - - N 1019,2 1,7 0 0,0
25.05.2018 23:00:00 13,8 12,6 - - 5 3 - - N 1019,2 3,4 0 0,0
25.05.2018 22:00:00 14,3 13,1 - - 5 3 - - N 1018,9 5 0 0,0
25.05.2018 21:00:00 15,6 13,4 - - 2 1 - - NW 1018,5 9 0 0,0
25.05.2018 20:00:00 16,2 13,4 - - 4 2 - - N 1018,3 10 0 0,0
25.05.2018 19:00:00 17,6 13,9 - - 4 2 - - N 1017,7 10 12 0,0
25.05.2018 18:00:00 18,2 13,4 - - 8 4 - - NNE 1017,6 16 18 0,0
25.05.2018 17:00:00 18,5 12,8 - - 5 3 - - NNE 1017,6 19 42 0,0
25.05.2018 16:00:00 18,3 13,2 - - 4 2 - - NNW 1018,0 12 6 0,0
25.05.2018 15:00:00 17,6 13,9 - - 5 3 - - WSW 1018,1 10 0 0,0
25.05.2018 14:00:00 16,0 13,6 - - 4 2 - - WSW 1018,1 6 0 0,0
25.05.2018 13:00:00 15,7 14,0 - - 4 2 - - S 1018,1 4,2 0 0,0
25.05.2018 12:00:00 14,8 13,2 - - 2 1 - - W 1017,8 2,9 0 0,0
25.05.2018 11:00:00 14,4 13,2 - - 2 1 - - NNW 1017,9 3,0 0 0,0
25.05.2018 10:00:00 13,7 12,5 16,7 12,7 4 2 - - NNW 1017,8 3,2 0 0,0
25.05.2018 09:00:00 13,5 12,4 - - 2 1 - - NNW 1017,8 3,3 0 0,0
25.05.2018 08:00:00 13,1 12,5 - - 4 2 - - NW 1017,5 2,6 0 0,0
25.05.2018 07:00:00 12,6 12,2 - - 2 1 - - NW 1017,3 2,6 0 0,0
25.05.2018 06:00:00 12,3 11,8 - - 4 2 - - N 1017,1 3,1 0 0,2
25.05.2018 05:00:00 12,6 12,1 - - 4 2 - - NNW 1017,0 3,0 0 0,2
25.05.2018 04:00:00 12,7 12,2 - - 5 3 - - N 1017,0 3,8 0 0,4
25.05.2018 03:00:00 13,1 12,6 - - 4 2 - - NW 1017,2 3,2 0 0,4
25.05.2018 02:00:00 13,4 13,0 - - 4 2 - - WNW 1017,2 3,0 0 0,0
25.05.2018 01:00:00 13,6 13,2 - - 2 1 - - NW 1017,5 1,4 - 0,0
25.05.2018 00:00:00 13,6 13,0 - - 2 1 - - WNW 1017,7 1,1 0 0,0
24.05.2018 23:00:00 14,4 13,9 - - 2 1 - - NW 1017,8 1,5 0 0,0
24.05.2018 22:00:00 14,4 13,9 - - 5 3 - - NW 1018,0 1,8 0 0,0
24.05.2018 21:00:00 14,4 13,8 - - 4 2 - - NNW 1017,8 2,0 0 0,4
24.05.2018 20:00:00 14,6 14,0 - - 5 3 - - NNW 1017,8 1,8 0 1,8
24.05.2018 19:00:00 14,8 14,2 - - 4 2 - - N 1017,9 1,0 0 1,6
24.05.2018 18:00:00 14,7 14,0 - - 5 3 - - NNE 1018,1 2,7 0 0,4
24.05.2018 17:00:00 14,6 13,8 - - 5 3 - - NW 1018,1 2,3 0 1,6
24.05.2018 16:00:00 14,8 13,6 - - 4 2 - - NW 1018,5 2,7 0 2,0
24.05.2018 15:00:00 14,8 13,6 - - 4 2 - - WNW 1019,0 3,4 0 0,0
24.05.2018 14:00:00 15,2 14,2 - - 4 2 - - WNW 1019,2 4,5 0 0,2
24.05.2018 13:00:00 14,7 13,1 - - 2 1 - - NNW 1019,8 4,8 0 0,2
24.05.2018 12:00:00 15,5 13,6 - - 11 6 - - NNE 1019,9 7 0 0,0
24.05.2018 11:00:00 13,8 12,3 - - 13 7 - - NNE 1020,2 6 0 0,0
24.05.2018 10:00:00 12,6 11,6 17,2 12,7 13 7 - - NNE 1020,3 4,9 0 0,0
24.05.2018 09:00:00 11,8 11,2 - - 9 5 - - NNE 1020,6 3,9 0 0,2
24.05.2018 08:00:00 11,1 10,4 - - 11 6 - - NNE 1020,5 3,5 0 0,2
24.05.2018 07:00:00 11,1 10,6 - - 13 7 - - NNE 1020,3 3,3 0 0,0
24.05.2018 06:00:00 10,9 10,4 - - 8 4 - - N 1020,3 4,1 0 0,8
24.05.2018 05:00:00 11,0 10,5 - - 11 6 - - N 1020,2 3,7 0 1,6
24.05.2018 04:00:00 10,9 10,2 - - 11 6 - - NNE 1021,0 2,0 0 2,0
24.05.2018 03:00:00 10,9 9,9 - - 11 6 - - NNE 1020,8 6 0 0,2
24.05.2018 02:00:00 11,4 9,7 - - 8 4 - - N 1020,9 8 0 0,4
24.05.2018 01:00:00 12,4 9,2 - - 11 6 - - NNE 1021,6 13 - 0,0
24.05.2018 00:00:00 12,6 9,4 - - 11 6 - - NNE 1021,6 12 0 0,0
23.05.2018 23:00:00 13,3 9,9 - - 9 5 - - N 1021,8 11 0 0,0
23.05.2018 22:00:00 13,9 10,0 - - 9 5 - - NNE 1022,1 12 0 0,0
23.05.2018 21:00:00 14,8 10,6 - - 8 4 - - NNE 1021,7 13 0 0,0
23.05.2018 20:00:00 16,8 11,0 - - 13 7 - - NE 1021,3 18 0 0,0
23.05.2018 19:00:00 16,8 11,7 - - 13 7 - - NNE 1021,2 14 0 0,0
23.05.2018 18:00:00 15,7 12,1 - - 11 6 - - NNE 1021,4 8 0 0,0
23.05.2018 17:00:00 17,8 11,4 - - 13 7 - - NNE 1021,4 17 0 0,0
23.05.2018 16:00:00 18,8 11,1 - - 16 9 - - NE 1021,6 30 54 0,0
23.05.2018 15:00:00 18,3 10,6 - - 21 11 - - NNE 1021,9 17 60 0,0
23.05.2018 14:00:00 18,6 11,8 - - 16 9 - - NNE 1022,1 21 60 0,0
23.05.2018 13:00:00 17,4 10,3 - - 22 12 - - NNE 1022,2 16 60 0,0
23.05.2018 12:00:00 16,5 9,8 - - 21 11 - - NNE 1022,6 14 60 0,0
23.05.2018 11:00:00 15,5 10,0 - - 15 8 - - N 1022,8 12 60 0,0
23.05.2018 10:00:00 14,0 9,8 16,9 12,4 13 7 - - N 1023,0 13 60 0,0
23.05.2018 09:00:00 12,5 8,5 - - 11 6 - - N 1023,1 11 48 0,0
23.05.2018 08:00:00 12,6 9,0 - - 8 4 - - N 1022,8 12 48 0,0
23.05.2018 07:00:00 10,7 8,4 - - 5 3 - - NNE 1022,4 10 0 0,0
23.05.2018 06:00:00 9,8 8,0 - - 8 4 - - N 1021,7 8 0 0,0
23.05.2018 05:00:00 9,6 8,0 - - 8 4 - - NNE 1021,5 8 0 0,0
23.05.2018 04:00:00 10,1 8,3 - - 11 6 - - NNE 1021,4 9 0 0,0
23.05.2018 03:00:00 9,1 8,1 - - 5 3 - - NNE 1021,3 7 0 0,0
23.05.2018 02:00:00 9,1 7,6 - - 2 1 - - NE 1021,1 6 0 0,0
23.05.2018 01:00:00 10,3 8,3 - - 11 6 - - NNE 1020,9 8 - 0,0
23.05.2018 00:00:00 11,3 8,5 - - 11 6 - - NNE 1020,6 11 0 0,0
22.05.2018 23:00:00 12,7 9,0 - - 9 5 - - N 1020,0 15 0 0,0
22.05.2018 22:00:00 14,0 8,8 - - 5 3 - - N 1019,5 23 0 0,0
22.05.2018 21:00:00 15,9 9,2 - - 8 4 - - N 1018,6 29 0 0,0
22.05.2018 20:00:00 18,2 9,8 - - 15 8 - - NNE 1017,9 30 60 0,0
22.05.2018 19:00:00 20,2 9,9 - - 18 10 - - NNE 1016,9 30 60 0,0
22.05.2018 18:00:00 21,6 9,1 - - 18 10 - - NNE 1016,1 25 60 0,0
22.05.2018 17:00:00 22,0 10,2 - - 16 9 - - NNE 1015,9 24 60 0,0
22.05.2018 16:00:00 22,4 10,9 - - 16 9 - - NNE 1015,7 30 60 0,0
22.05.2018 15:00:00 22,0 11,7 - - 13 7 - - NNE 1015,8 30 54 0,0
22.05.2018 14:00:00 20,8 11,2 - - 13 7 - - NNE 1015,8 25 60 0,0
22.05.2018 13:00:00 20,2 11,2 - - 16 9 - - NNE 1015,6 27 60 0,0
22.05.2018 12:00:00 20,1 10,8 - - 11 6 - - NNE 1015,4 29 60 0,0
22.05.2018 11:00:00 19,1 9,8 - - 13 7 - - NNE 1015,4 21 60 0,0
22.05.2018 10:00:00 17,9 9,8 16,5 12,2 15 8 - - N 1015,1 29 60 0,0
22.05.2018 09:00:00 15,4 9,3 - - 13 7 - - NNE 1015,4 20 60 0,0
22.05.2018 08:00:00 14,1 9,2 - - 11 6 - - N 1015,3 40 60 0,0
22.05.2018 07:00:00 13,4 9,8 - - 5 3 - - N 1014,7 24 12 0,0
22.05.2018 06:00:00 11,8 9,8 - - 5 3 - - NW 1014,4 10 0 0,0
22.05.2018 05:00:00 12,0 10,1 - - 5 3 - - N 1014,0 11 0 0,0
22.05.2018 04:00:00 11,9 10,2 - - 5 3 - - N 1013,7 14 0 0,0
22.05.2018 03:00:00 12,1 10,7 - - 5 3 - - NW 1013,6 17 0 0,0
22.05.2018 02:00:00 11,9 10,6 - - 5 3 - - NW 1014,0 17 0 0,0
22.05.2018 01:00:00 11,1 10,7 - - 5 3 - - NNW 1014,1 10 - 0,0
22.05.2018 00:00:00 10,6 9,9 - - 2 1 - - N 1014,4 6 0 0,0
21.05.2018 23:00:00 11,6 10,7 - - 2 1 - - W 1014,4 7 0 0,0
21.05.2018 22:00:00 13,0 11,5 - - 4 2 - - NW 1014,5 12 0 0,0
21.05.2018 21:00:00 14,5 12,1 - - 2 1 - - ENE 1014,2 12 0 0,0
21.05.2018 20:00:00 17,3 12,6 - - 4 2 - - NW 1013,9 16 0 0,2
21.05.2018 19:00:00 19,1 10,9 - - 8 4 - - ENE 1013,7 25 6 0,0
21.05.2018 18:00:00 21,6 12,0 - - 11 6 - - ENE 1013,4 18 60 0,0
21.05.2018 17:00:00 19,4 11,6 - - 9 5 - - NNE 1013,7 26 6 0,0
21.05.2018 16:00:00 20,4 10,9 - - 16 9 - - NNE 1014,1 30 12 0,0
21.05.2018 15:00:00 20,0 11,2 - - 9 5 - - NE 1014,5 30 0 0,0
21.05.2018 14:00:00 20,5 10,5 - - 9 5 - - N 1014,7 35 6 0,0
21.05.2018 13:00:00 21,4 10,6 - - 2 1 - - N 1015,0 35 36 0,0
21.05.2018 12:00:00 20,5 12,5 - - 9 5 - - NE 1015,7 22 42 0,0
21.05.2018 11:00:00 17,7 11,7 - - 5 3 - - NE 1016,1 11 24 0,0
21.05.2018 10:00:00 16,6 11,2 16,4 12,2 8 4 - - N 1016,4 8 60 0,0
21.05.2018 09:00:00 14,3 10,8 - - 5 3 - - NE 1016,9 7 54 0,0

tt = temperature
td = dewpoint
tt -20cm = temperature -20cm
tt -100cm = temperature -100cm
ff = wind speed
fx = gusts
dd = wind direction
ppp = reduced air pressure
vv = visibility
sd = sunshine duration
rr = precipitation

Next stations